Lamoni, IA

6:37 AM CST on February 28, 2017 (GMT -0600)
Lamoni Municipal

Weather History for KLWD - July, 2012

Change the Weather History Date:

Tuesday, July 10, 2012

  Actual Average Record
Temperature  
Mean Temperature 76 °F 75 °F  
Max Temperature 89 °F 85 °F 100 °F (1966)
Min Temperature 63 °F 65 °F 56 °F (1968)
Degree Days  
Heating Degree Days 0 0  
Month to date heating degree days 0 0  
Since 1 June heating degree days 10 19  
Since 1 July heating degree days 0 0  
Cooling Degree Days 11 10  
Month to date cooling degree days 186 98  
Year to date cooling degree days 614 345  
Since 1 June cooling degree days 457 291  
Growing Degree Days 26 (Base 50)    
Moisture  
Dew Point 58 °F    
Average Humidity 56    
Maximum Humidity 84    
Minimum Humidity 31    
Precipitation  
Precipitation 0.00 in 0.16 in 0.71 in (1982)
Month to date precipitation 0.08 1.49  
Year to date precipitation 15.92  
Sea Level Pressure  
Sea Level Pressure 30.06 in    
Wind  
Wind Speed 7 mph (NNE)    
Max Wind Speed 13 mph    
Max Gust Speed 23 mph    
Visibility 10 miles    
Events      
T = Trace of Precipitation, MM = Missing Value Source: NWS Daily Summary

Daily Weather History Graph

Daily Weather History Graph

Search for Another Location

Airport or City:

Trip Planner

Search our weather history database for the weather conditions in past years. The results will help you decide how hot, cold, wet, or windy it might be!

Date:

Astronomy

Jul. 10, 2012 Rise Set
Actual Time 5:54 AM CDT 8:47 PM CDT
Civil Twilight 5:21 AM CDT 9:20 PM CDT
Nautical Twilight 4:40 AM CDT 10:01 PM CDT
Astronomical Twilight 3:52 AM CDT 10:48 PM CDT
Moon 12:01 AM CDT (7/10) 1:23 PM CDT (7/10)
Length of Visible Light 15h 58m
Length of Day
14h 53m
Waning Gibbous, 54% of the Moon is Illuminated
Jul 10
Waning Gibbous
Jul 10
Last Quarter
Jul 18
New
Jul 26
First Quarter
Aug 1
Full

Hourly Weather History & Observations

Time (CDT) Temp. Heat Index Dew Point Humidity Pressure Visibility Wind Dir Wind Speed Gust Speed Precip Events Conditions
12:53 AM 73.0 °F - 64.9 °F 76% 30.06 in 10.0 mi NNE 6.9 mph - 0.01 in   Unknown
1:53 AM 71.1 °F - 64.0 °F 78% 30.06 in 10.0 mi North 6.9 mph - N/A   Unknown
2:53 AM 68.0 °F - 63.0 °F 84% 30.07 in 10.0 mi North 5.8 mph - N/A   Clear
3:53 AM 66.9 °F - 61.0 °F 81% 30.06 in 10.0 mi North 5.8 mph - 0.01 in   Unknown
4:53 AM 66.0 °F - 60.1 °F 81% 30.07 in 10.0 mi North 6.9 mph - N/A   Unknown
5:53 AM 64.9 °F - 57.9 °F 78% 30.08 in 10.0 mi North 8.1 mph - N/A   Unknown
6:53 AM 66.0 °F - 57.9 °F 75% 30.09 in 10.0 mi North 6.9 mph - N/A   Unknown
7:53 AM 69.1 °F - 57.9 °F 68% 30.09 in 10.0 mi NNE 9.2 mph - N/A   Clear
8:53 AM 73.9 °F - 59.0 °F 59% 30.10 in 10.0 mi NNE 4.6 mph - N/A   Clear
9:53 AM 79.0 °F - 60.1 °F 52% 30.09 in 10.0 mi Variable 3.5 mph - N/A   Clear
10:53 AM 82.0 °F 81.7 °F 57.0 °F 42% 30.09 in 10.0 mi North 9.2 mph 17.3 mph N/A   Clear
11:53 AM 84.9 °F 83.3 °F 54.0 °F 34% 30.08 in 10.0 mi NNW 8.1 mph - N/A   Clear
12:53 PM 84.9 °F 83.2 °F 53.1 °F 33% 30.08 in 10.0 mi Variable 3.5 mph - N/A   Clear
1:53 PM 87.1 °F 84.9 °F 53.1 °F 31% 30.06 in 10.0 mi NNE 12.7 mph 18.4 mph N/A   Clear
2:53 PM 87.1 °F 84.9 °F 53.1 °F 31% 30.06 in 10.0 mi Variable 5.8 mph 17.3 mph N/A   Clear
3:53 PM 88.0 °F 85.9 °F 54.0 °F 31% 30.05 in 10.0 mi NNE 11.5 mph 16.1 mph N/A   Clear
4:53 PM 88.0 °F 85.9 °F 54.0 °F 31% 30.04 in 10.0 mi NE 9.2 mph 23.0 mph N/A   Partly Cloudy
5:53 PM 84.9 °F 83.3 °F 54.0 °F 34% 30.03 in 10.0 mi North 10.4 mph - N/A   Clear
6:53 PM 84.9 °F 83.3 °F 54.0 °F 34% 30.03 in 10.0 mi NNE 9.2 mph - N/A   Clear
7:53 PM 82.0 °F 82.0 °F 57.9 °F 44% 30.03 in 10.0 mi NNE 5.8 mph - N/A   Clear
8:53 PM 75.9 °F - 59.0 °F 56% 30.03 in 10.0 mi NNE 4.6 mph - N/A   Clear
9:53 PM 72.0 °F - 61.0 °F 68% 30.05 in 10.0 mi NE 6.9 mph - 0.03 in   Clear
10:53 PM 73.9 °F - 62.1 °F 66% 30.06 in 10.0 mi East 4.6 mph - 0.01 in   Partly Cloudy
11:53 PM 71.1 °F - 61.0 °F 70% 30.07 in 10.0 mi NE 5.8 mph - N/A   Clear